Padova Airport LIPU

Flugplatz Daten

Name: Padova Airport

Ident: LIPU

Lat: 45,39580154

Long: 11,84790039

Platzhöhe: 44 ft

IataCode: QPA

City: Padova

Metar

2022/08/13 13:50
LIPU 131350Z 17004KT 100V210 CAVOK 28/10 Q1012

Taf

Gewünschte Webcam nicht vorhanden? Dann fügen Sie eine hinzu. Sie wird dann so schnell wie möglich freigeschaltet
Url: Title: